Weather History for Chignik, AK

Change the Weather History Date:

Saturday, January 21, 2012

  Actual Average Record
Temperature  
Mean Temperature 16 °F -  
Max Temperature 17 °F 33 °F 116 °F (2004)
Min Temperature 15 °F 26 °F 12 °F (2006)
Degree Days  
Heating Degree Days 49    
Moisture  
Dew Point 7 °F    
Average Humidity 64    
Maximum Humidity 73    
Minimum Humidity 45    
Precipitation  
Precipitation 0.00 in - - ()
Sea Level Pressure  
Sea Level Pressure 29.08 in    
Wind  
Wind Speed 21 mph (West)    
Max Wind Speed 30 mph    
Max Gust Speed 41 mph    
Visibility 9 miles    
Events      
Averages and records for this station are not official NWS values.
T = Trace of Precipitation, MM = Missing Value Source: NWS Daily Summary

Daily Weather History Graph

Daily Weather History Graph

Search for Another Location

Airport:

Trip Planner

Search our weather history database for the weather conditions in past years. The results will help you decide how hot, cold, wet, or windy it might be!

Date:

Astronomy

Jan. 21, 2012 Rise Set
Actual Time 9:48 AM AKST 5:41 PM AKST
Civil Twilight 9:04 AM AKST 6:25 PM AKST
Nautical Twilight 8:18 AM AKST 7:12 PM AKST
Astronomical Twilight 7:33 AM AKST 7:56 PM AKST
Moon 8:37 AM AKST (1/21) 4:24 PM AKST (1/21)
Length of Visible Light 9h 20m
Length of Day
7h 52m
Waning Crescent, 2% of the Moon is Illuminated
Jan 21
Waning Crescent
Jan 22
New
Jan 30
First Quarter
Feb 7
Full
Feb 14
Last Quarter

Hourly Weather History & Observations

Time (AKST) Temp. Windchill Dew Point Humidity Pressure Visibility Wind Dir Wind Speed Gust Speed Precip Events Conditions
12:16 AM 17.6 °F 3.2 °F -0.4 °F 45% 29.31 in 10.0 mi North 15.0 mph 25.3 mph N/A   Clear
12:36 AM 17.6 °F 0.9 °F 1.4 °F 49% 29.29 in 10.0 mi North 20.7 mph 26.5 mph N/A   Clear
12:56 AM 17.6 °F -0.6 °F 1.4 °F 49% 29.28 in 10.0 mi North 25.3 mph 28.8 mph N/A   Clear
1:16 AM 17.6 °F 2.2 °F 1.4 °F 49% 29.28 in 10.0 mi North 17.3 mph 27.6 mph N/A   Clear
1:36 AM 17.6 °F 1.3 °F -0.4 °F 45% 29.28 in 10.0 mi North 19.6 mph 26.5 mph N/A   Clear
1:56 AM 17.6 °F 5.0 °F -0.4 °F 45% 29.27 in 10.0 mi North 11.5 mph 31.1 mph N/A   Clear
2:16 AM 17.6 °F 2.2 °F -0.4 °F 45% 29.26 in 10.0 mi North 17.3 mph 25.3 mph N/A   Clear
2:36 AM 17.6 °F 0.9 °F 1.4 °F 49% 29.25 in 10.0 mi NNW 20.7 mph 29.9 mph N/A   Clear
2:56 AM 17.6 °F 0.9 °F -0.4 °F 45% 29.24 in 10.0 mi NNW 20.7 mph 31.1 mph N/A   Clear
3:16 AM 17.6 °F 0.5 °F -0.4 °F 45% 29.24 in 10.0 mi WSW 21.9 mph 31.1 mph N/A   Clear
3:36 AM 17.6 °F 0.5 °F 1.4 °F 49% 29.23 in 10.0 mi WSW 21.9 mph 27.6 mph N/A   Clear
3:56 AM 15.8 °F -1.1 °F -0.4 °F 49% 29.23 in 10.0 mi WSW 19.6 mph 28.8 mph N/A   Clear
4:16 AM 15.8 °F -1.5 °F 1.4 °F 53% 29.22 in 10.0 mi WSW 20.7 mph 36.8 mph N/A   Clear
4:36 AM 15.8 °F -3.7 °F 8.6 °F 73% 29.20 in 10.0 mi West 27.6 mph 39.1 mph N/A   Partly Cloudy
4:56 AM 15.8 °F -2.7 °F 6.8 °F 68% 29.18 in 8.0 mi WSW 24.2 mph 38.0 mph N/A   Mostly Cloudy
5:16 AM 17.6 °F -1.0 °F 8.6 °F 68% 29.16 in 8.0 mi North 26.5 mph 38.0 mph N/A   Overcast
5:36 AM 17.6 °F 0.1 °F 8.6 °F 68% 29.15 in 6.0 mi WNW 23.0 mph 35.7 mph N/A   Overcast
5:56 AM 17.6 °F -1.0 °F 6.8 °F 63% 29.15 in 3.0 mi WSW 26.5 mph 38.0 mph N/A   Overcast
6:16 AM 17.6 °F -1.0 °F 8.6 °F 68% 29.14 in 4.0 mi NW 26.5 mph 41.4 mph N/A   Overcast
6:36 AM 17.6 °F -0.3 °F 8.6 °F 68% 29.12 in 3.0 mi West 24.2 mph 33.4 mph N/A   Overcast
6:56 AM 17.6 °F 3.2 °F 8.6 °F 68% 29.12 in 10.0 mi WSW 15.0 mph 29.9 mph N/A   Mostly Cloudy
7:16 AM 17.6 °F 0.5 °F 8.6 °F 68% 29.11 in 10.0 mi WSW 21.9 mph 33.4 mph N/A   Partly Cloudy
7:36 AM 17.6 °F 0.1 °F 8.6 °F 68% 29.10 in 10.0 mi North 23.0 mph 34.5 mph N/A   Partly Cloudy
7:56 AM 17.6 °F -0.6 °F 8.6 °F 68% 29.09 in 10.0 mi NW 25.3 mph 33.4 mph N/A   Partly Cloudy
8:16 AM 17.6 °F 1.3 °F 8.6 °F 68% 29.08 in 10.0 mi WSW 19.6 mph 31.1 mph N/A   Clear
8:36 AM 17.6 °F 0.5 °F 8.6 °F 68% 29.07 in 10.0 mi WSW 21.9 mph 31.1 mph N/A   Clear
8:56 AM 17.6 °F -0.3 °F 6.8 °F 63% 29.07 in 10.0 mi WNW 24.2 mph 31.1 mph N/A   Clear
9:16 AM 17.6 °F -0.6 °F 8.6 °F 68% 29.06 in 10.0 mi NW 25.3 mph 32.2 mph N/A   Partly Cloudy
9:36 AM 17.6 °F -1.9 °F 8.6 °F 68% 29.05 in 10.0 mi SW 29.9 mph 40.3 mph N/A   Scattered Clouds
9:56 AM 17.6 °F 0.9 °F 8.6 °F 68% 29.04 in 10.0 mi West 20.7 mph 33.4 mph N/A   Partly Cloudy
10:16 AM 17.6 °F 0.5 °F 8.6 °F 68% 29.04 in 10.0 mi NW 21.9 mph 35.7 mph N/A   Clear
10:36 AM 17.6 °F -1.0 °F 8.6 °F 68% 29.04 in 10.0 mi West 26.5 mph 34.5 mph N/A   Clear
10:56 AM 15.8 °F -1.5 °F 8.6 °F 73% 29.03 in 10.0 mi WNW 20.7 mph 36.8 mph N/A   Clear
11:16 AM 15.8 °F -2.7 °F 8.6 °F 73% 29.02 in 10.0 mi WSW 24.2 mph 36.8 mph N/A   Clear
11:36 AM 17.6 °F -0.6 °F 10.4 °F 73% 29.01 in 10.0 mi SW 25.3 mph 34.5 mph N/A   Clear
11:56 AM 17.6 °F -1.0 °F 10.4 °F 73% 29.00 in 10.0 mi NNW 26.5 mph 29.9 mph N/A   Clear
12:16 PM 17.6 °F 0.1 °F 10.4 °F 73% 28.99 in 9.0 mi West 23.0 mph 34.5 mph N/A   Partly Cloudy
12:36 PM 17.6 °F 0.1 °F 10.4 °F 73% 28.98 in 10.0 mi SW 23.0 mph 33.4 mph N/A   Scattered Clouds
12:56 PM 17.6 °F 0.5 °F 10.4 °F 73% 28.97 in 7.0 mi SW 21.9 mph 34.5 mph N/A   Mostly Cloudy
1:16 PM 17.6 °F 0.5 °F 10.4 °F 73% 28.96 in 10.0 mi SW 21.9 mph 33.4 mph N/A   Partly Cloudy
1:36 PM 17.6 °F -0.6 °F 10.4 °F 73% 28.96 in 10.0 mi SW 25.3 mph 35.7 mph N/A   Clear
1:56 PM 17.6 °F -0.6 °F 8.6 °F 68% 28.95 in 10.0 mi SW 25.3 mph 32.2 mph N/A   Clear
2:16 PM 17.6 °F 1.7 °F 8.6 °F 68% 28.95 in 10.0 mi SW 18.4 mph 29.9 mph N/A   Clear
2:36 PM 17.6 °F 3.7 °F 8.6 °F 68% 28.95 in 10.0 mi SW 13.8 mph 26.5 mph N/A   Clear
2:56 PM 17.6 °F 2.7 °F 6.8 °F 63% 28.94 in 10.0 mi WSW 16.1 mph 25.3 mph N/A   Clear
3:16 PM 17.6 °F 0.5 °F 8.6 °F 68% 28.93 in 10.0 mi SSW 21.9 mph 25.3 mph N/A   Clear
3:36 PM 17.6 °F 1.3 °F 8.6 °F 68% 28.93 in 10.0 mi SW 19.6 mph 31.1 mph N/A   Clear
3:56 PM 17.6 °F 1.7 °F 6.8 °F 63% 28.92 in 10.0 mi SW 18.4 mph 24.2 mph N/A   Clear
4:16 PM 17.6 °F -0.6 °F 6.8 °F 63% 28.91 in 10.0 mi SSW 25.3 mph - N/A   Clear
4:36 PM 15.8 °F -1.5 °F 6.8 °F 68% 28.92 in 10.0 mi SW 20.7 mph 29.9 mph N/A   Clear
4:56 PM 15.8 °F -2.3 °F 6.8 °F 68% 28.91 in 10.0 mi SW 23.0 mph 31.1 mph N/A   Clear
5:16 PM 15.8 °F -2.7 °F 8.6 °F 73% 28.90 in 10.0 mi SW 24.2 mph 33.4 mph N/A   Clear
5:36 PM 15.8 °F -3.1 °F 8.6 °F 73% 28.90 in 10.0 mi SW 25.3 mph 32.2 mph N/A   Clear
5:56 PM 15.8 °F -1.1 °F 6.8 °F 68% 28.90 in 10.0 mi WSW 19.6 mph 31.1 mph N/A   Clear
6:16 PM 15.8 °F -1.1 °F 6.8 °F 68% 28.89 in 10.0 mi SW 19.6 mph 24.2 mph N/A   Clear
6:36 PM 15.8 °F -1.9 °F 6.8 °F 68% 28.89 in 10.0 mi SW 21.9 mph 28.8 mph N/A   Clear
6:56 PM 15.8 °F -3.1 °F 8.6 °F 73% 28.88 in 10.0 mi SSW 25.3 mph 35.7 mph N/A   Clear
7:16 PM 15.8 °F -3.4 °F 6.8 °F 68% 28.88 in 10.0 mi SW 26.5 mph 35.7 mph N/A   Clear
7:36 PM 15.8 °F -3.1 °F 8.6 °F 73% 28.88 in 9.0 mi SW 25.3 mph 33.4 mph N/A   Partly Cloudy
7:56 PM 14.0 °F -4.3 °F 6.8 °F 73% 28.88 in 9.0 mi SW 21.9 mph 29.9 mph N/A   Partly Cloudy
8:16 PM 12.2 °F -5.8 °F 6.8 °F 79% 28.88 in 5.0 mi SW 19.6 mph 29.9 mph N/A   Scattered Clouds
8:36 PM 12.2 °F -6.3 °F 6.8 °F 79% 28.88 in 5.0 mi SW 20.7 mph 31.1 mph N/A   Mostly Cloudy
8:56 PM 12.2 °F -7.1 °F 6.8 °F 79% 28.88 in 4.0 mi WSW 23.0 mph 31.1 mph N/A   Overcast
9:16 PM 12.2 °F -7.5 °F 6.8 °F 79% 28.87 in 3.0 mi SW 24.2 mph 33.4 mph N/A   Overcast
9:36 PM 12.2 °F -8.2 °F 6.8 °F 79% 28.87 in 2.5 mi SW 26.5 mph 34.5 mph N/A   Overcast
9:56 PM 12.2 °F -6.3 °F 6.8 °F 79% 28.88 in 3.0 mi SW 20.7 mph 32.2 mph N/A   Overcast
10:16 PM 12.2 °F -6.3 °F 6.8 °F 79% 28.88 in 3.0 mi SW 20.7 mph 35.7 mph N/A   Overcast
10:36 PM 12.2 °F -5.8 °F 6.8 °F 79% 28.88 in 4.0 mi SW 19.6 mph 31.1 mph N/A   Overcast
10:56 PM 12.2 °F -5.8 °F 5.0 °F 73% 28.88 in 5.0 mi WSW 19.6 mph 32.2 mph N/A   Overcast
11:16 PM 12.2 °F -5.8 °F 6.8 °F 79% 28.87 in 5.0 mi SW 19.6 mph 29.9 mph N/A   Overcast
11:36 PM 12.2 °F -8.2 °F 6.8 °F 79% 28.87 in 6.0 mi SW 26.5 mph 32.2 mph N/A   Mostly Cloudy
11:56 PM 12.2 °F -6.7 °F 5.0 °F 73% 28.86 in 9.0 mi SW 21.9 mph 31.1 mph N/A   Mostly Cloudy